Observations for Trim Patrick St
| Time | AQI | Temp °C | Hum % | Pres Pa | CO μg/m³ | H₂S μg/m³ | NO μg/m³ | NO₂ μg/m³ | O₃ μg/m³ | SO₂ μg/m³ | PM1 μg/m³ | PM2.5 μg/m³ | PM10 μg/m³ |
|---|---|---|---|---|---|---|---|---|---|---|---|---|---|
| Sunday 2 August 2026 | |||||||||||||
| 15:21 | 2 | 27.1 | 35 | 69,082 | 0 | 0 | 1.37 | 15.8 | 99.95 | 9.7 | 3.71 | 9.72 | 10.7 |
| 15:20 | 2 | 27.2 | 35 | 69,078 | 0 | 0 | 1.39 | 13.7 | 74.95 | 9.57 | 2 | 7.35 | 8.08 |
| 15:19 | 2 | 27.2 | 36 | 69,072 | 0 | 0 | 1.38 | 17.42 | 82.82 | 8.84 | 2.86 | 8.12 | 8.93 |
| 15:18 | 2 | 27.3 | 35 | 69,092 | 0 | 0 | 1.38 | 17.78 | 87.25 | 10.13 | 3.71 | 8.94 | 9.84 |
| 15:17 | 2 | 27.3 | 35 | 69,088 | 0 | 0 | 1.38 | 14.94 | 81.2 | 9.36 | 2 | 8.13 | 8.94 |
| 15:16 | 2 | 27.3 | 35 | 69,053 | 0 | 0 | 1.39 | 22.05 | 82.99 | 9.61 | 2.86 | 8.15 | 8.97 |
| 15:15 | 2 | 27.3 | 35 | 69,065 | 0 | 0 | 1.38 | 17.97 | 84.37 | 8.13 | 2 | 8.96 | 9.85 |
| 15:14 | 2 | 27.3 | 36 | 69,051 | 0 | 0 | 1.4 | 13.36 | 77.76 | 10.08 | 2 | 8.12 | 8.93 |
| 15:13 | 2 | 27.3 | 35 | 69,063 | 0 | 0 | 1.34 | 19.05 | 91.08 | 10.11 | 2.86 | 8.95 | 9.84 |
| 15:12 | 2 | 27.3 | 35 | 69,076 | 0 | 0 | 1.37 | 16.76 | 98.88 | 9.34 | 2 | 8.16 | 8.98 |
| 15:11 | 2 | 27.3 | 36 | 69,072 | 0 | 0 | 1.27 | 14.36 | 82.78 | 8.45 | 2 | 7.31 | 8.04 |
| 15:10 | 2 | 27.3 | 35 | 69,094 | 0 | 0 | 1.21 | 10.42 | 74.3 | 8.14 | 3.71 | 11.36 | 12.49 |
| 15:09 | 2 | 27.3 | 36 | 69,092 | 0 | 0 | 1.21 | 15.43 | 120.86 | 10.69 | 2.86 | 8.1 | 8.91 |
| 15:08 | 2 | 27.3 | 35 | 69,090 | 0 | 0 | 1.19 | 14.91 | 107.79 | 9.12 | 3.71 | 8.95 | 9.84 |
| 15:07 | 2 | 27.3 | 36 | 69,088 | 0 | 0 | 1.24 | 13.11 | 93.03 | 10.37 | 3.71 | 8.87 | 9.76 |
| 15:06 | 2 | 27.3 | 36 | 69,084 | 0 | 0 | 1.33 | 10.93 | 75.22 | 9.37 | 2 | 8.87 | 9.76 |
| 15:05 | 2 | 27.4 | 35 | 69,080 | 0 | 0 | 1.35 | 12.67 | 74.44 | 8.66 | 2.86 | 8.93 | 9.82 |
| 15:04 | 2 | 27.3 | 36 | 69,076 | 0 | 0 | 1.39 | 13.67 | 73.83 | 8.63 | 2 | 8.06 | 8.86 |
| 15:03 | 2 | 27.3 | 36 | 69,067 | 0 | 0 | 1.42 | 20.45 | 93.66 | 9.79 | 2.86 | 9.64 | 10.6 |
| 15:02 | 2 | 27.4 | 36 | 69,084 | 0 | 0 | 1.41 | 14.64 | 87.29 | 10.54 | 4.57 | 9.65 | 10.62 |